[[{"header":{"parameterUnit":"m.s-1","parameterCategory":1,"la1":30.2991,"la2":30.254,"lo1":-89.0895,"lo2":-89.0444,"dy":0.0017,"dx":0.0017,"nx":28,"ny":28,"refTime":"2025-03-15T03:00:00:Z","depth":0,"parameterNumber":2,"parameterNumberName":"U-component_of_WINDS"},"data":[0,0,0,0,0,0,0,0,0,0,0,0,0,0,0,0,0,0,0,0,0,0,0,0,0,0,0,0,0,0,0,0,0,0,0,0,0,0,0,0,0,0,0,0,0,0,0,0,0,0,0,0,0,0,0,0,0,0,6.3561,6.3562,0,6.3637,6.3637,6.3638,6.3591,6.3588,6.3586,6.3584,6.3666,6.367,6.3674,0,0,0,0,0,0,0,0,0,0,0,0,0,6.3379,6.3383,6.3561,6.3562,6.3563,6.3636,6.3637,6.3638,6.3591,6.3588,6.3586,6.3583,6.3664,6.3669,6.3674,0,0,0,0,0,0,0,0,0,0,0,0,0,6.3457,6.3384,6.356,6.3548,6.3547,6.3636,6.3637,6.3639,6.3592,6.3588,6.3585,6.3582,6.3662,6.3669,6.3675,6.3782,0,0,6.3695,6.3697,0,0,0,0,0,0,0,0,6.3453,6.3464,6.3549,6.3549,6.3548,6.3601,6.3603,6.3687,6.3592,6.3575,6.3584,6.358,6.3647,6.3654,6.3676,6.3786,6.3789,6.3695,6.3699,6.3702,6.3704,0,0,0,0,0,0,0,6.3447,6.346,6.3591,6.355,6.355,6.354,6.3547,6.3619,6.3629,6.3576,6.3573,6.3582,6.3646,6.367,6.3678,6.379,6.3695,6.3701,6.3705,6.3707,6.3995,6.3998,0,0,0,0,0,0,6.3442,6.3456,6.3588,6.3593,6.3491,6.3546,6.3554,6.3587,6.3628,6.3631,6.3585,6.358,6.3661,6.367,6.368,6.3811,6.3702,6.3708,6.3711,6.3991,6.3996,6.4,0,0,0,0,0,0,6.3439,6.3455,6.3585,6.3524,6.354,6.3552,6.359,6.3591,6.3614,6.3635,6.3637,6.3607,6.3659,6.3671,6.3757,6.3813,6.3711,6.3716,6.3987,6.3992,6.3998,6.407,0,0,0,0,0,0,6.3434,6.3454,6.3493,6.3525,6.3543,6.366,6.3594,6.3595,6.3625,6.3619,6.3656,6.3659,6.3657,6.3748,6.3764,6.382,6.3721,6.3982,6.3989,6.3996,6.4063,6.4078,6.409,0,0,0,0,0,6.3427,6.3511,6.3495,6.3512,6.3592,6.3663,6.3674,6.3668,6.363,6.3671,6.3684,6.3658,6.3804,6.3757,6.3775,6.3833,6.3978,6.3987,6.3995,6.4057,6.4075,6.409,0,0,0,0,0,0,6.3486,6.3515,6.3498,6.3594,6.3626,6.3655,6.3706,6.3687,6.3732,6.3724,6.3717,6.3726,6.3816,6.3833,6.3781,6.394,6.3885,6.3898,6.3926,6.3943,6.3957,6.3952,6.3727,0,0,0,0,0,6.351,6.3563,6.3586,6.3669,6.3686,6.3693,6.3724,6.3717,6.3751,6.3764,6.3784,6.3819,6.3873,6.3909,6.3959,6.4065,6.4074,6.4114,6.4127,6.4138,6.415,6.421,6.4229,6.4028,6.4028,6.4028,0,0,6.356,6.3582,6.3617,6.3681,6.3705,6.3763,6.3705,6.3768,6.3811,6.3774,6.3857,6.3873,6.3912,6.4009,6.4053,6.4026,6.4207,6.4149,6.4158,6.4164,6.4221,6.424,6.4257,6.4034,6.4033,6.4032,0,0,6.3682,6.3703,6.3775,6.3801,6.3838,6.3843,6.386,6.3892,6.3901,6.3984,6.3958,6.401,6.4102,6.4132,6.4159,6.4294,6.4273,6.431,6.4383,6.4441,6.4457,6.4471,6.4521,6.4539,6.4321,6.4322,6.4322,0,6.374,6.3824,6.3815,6.388,6.3911,6.3879,6.3954,6.3979,6.4032,6.4054,6.4023,6.4139,6.4163,6.4268,6.4301,6.4323,6.4345,6.4307,6.4455,6.4469,6.4482,6.453,6.4549,6.4326,6.4326,6.4325,6.4325,0,6.3896,6.3955,6.4009,6.406,6.4096,6.4166,6.4169,6.4206,6.4197,6.4205,6.4292,6.4319,6.4376,6.4399,6.439,6.4504,6.4486,6.4455,6.44,6.4506,6.4551,6.4569,6.4333,6.4331,6.433,6.4328,0,0,6.4057,6.4102,6.4123,6.4147,6.4186,6.4233,6.4302,6.4356,6.439,6.4427,6.4487,6.4566,6.4538,6.4569,6.4563,6.4614,6.4723,6.4577,6.4578,6.4606,6.4853,6.4878,6.4899,6.4708,6.4711,6.4714,6.485,0,6.4183,6.4302,6.4297,6.441,6.4466,6.4437,6.4498,6.453,6.454,6.459,6.4601,6.4659,6.4616,6.4635,6.4684,6.4699,6.4773,6.4689,6.4766,6.4769,6.4759,6.4922,6.4948,6.5075,6.4867,6.487,6.4873,0,6.4346,6.4389,6.4507,6.454,6.4564,6.4618,6.4669,6.4716,6.4753,6.4757,6.4792,6.4778,6.4851,6.4792,6.4893,6.4837,6.4868,6.488,6.4885,6.4894,6.4829,6.4938,6.5115,6.5136,6.49,6.4898,6.4896,0,6.4455,6.4542,6.4625,6.4646,6.4686,6.4726,6.4744,6.4777,6.4811,6.4856,6.4878,6.4931,6.496,6.5002,6.5004,6.4961,6.5107,6.5048,6.5115,6.5115,6.5149,6.5147,6.5337,6.5165,6.5165,6.5164,6.5164,0,6.4598,6.4672,6.4675,6.4726,6.481,6.4803,6.4886,6.4901,6.493,6.4986,6.4963,6.5016,6.5014,6.5068,6.507,6.5155,6.5168,6.5175,6.5175,6.5178,6.5178,6.52,6.5193,6.5169,6.5168,6.5167,6.5166,0,6.4735,6.4739,6.4828,6.4859,6.4868,6.4929,6.4956,6.5005,6.5013,6.5084,6.51,6.5113,6.5176,6.5181,6.5254,6.5255,6.5359,6.5348,6.5346,6.5346,6.5413,6.5407,6.5625,6.5655,6.5462,6.5463,6.5465,0,6.4827,6.4884,6.4921,6.4955,6.4976,6.5033,6.5067,6.5063,6.51,6.5147,6.5192,6.5251,6.5299,6.5401,6.5419,6.5475,6.5467,6.5539,6.5475,6.5477,6.5471,6.5469,6.5476,6.5552,6.5554,6.5556,6.5557,0,6.4991,6.4991,6.5041,6.5093,6.5134,6.5175,6.5212,6.5242,6.5243,6.5286,6.5349,6.5387,6.5461,6.5522,6.5577,6.5598,6.558,6.5577,6.5596,6.5601,6.5599,6.5604,6.5383,6.5573,6.5571,6.557,6.5569,6.5569,6.5111,6.5161,6.5195,6.5252,6.528,6.5316,6.5365,6.5379,6.5431,6.549,6.5485,6.5556,6.5592,6.5664,6.5689,6.5746,6.5722,6.5749,6.5756,6.5763,6.5771,6.5588,6.5756,6.5755,6.5755,6.5754,6.5754,0,6.5277,6.5297,6.5349,6.5403,6.5448,6.5424,6.5465,6.5506,6.5568,6.5603,6.5651,6.5724,6.5784,6.5806,6.5864,6.5905,6.5898,6.5921,6.5919,6.5925,6.5788,6.5767,6.5926,6.5926,6.5926,6.5926,6.5926,6.5926,6.5368,6.5452,6.5456,6.5554,6.5574,6.5643,6.5669,6.5703,6.5731,6.5814,6.5863,6.5876,6.5907,6.5967,6.6021,6.6026,6.605,6.6077,6.6079,6.5951,6.5934,6.5918,6.5898,6.6082,6.6082,6.6211,6.6213,6.6214]},{"header":{"parameterUnit":"m.s-1","parameterCategory":1,"la1":30.2991,"la2":30.254,"lo1":-89.0895,"lo2":-89.0444,"dy":0.0017,"dx":0.0017,"nx":28,"ny":28,"refTime":"2025-03-15T03:00:00:Z","depth":0,"parameterNumber":3,"parameterNumberName":"V-component_of_WINDS"},"data":[0,0,0,0,0,0,0,0,0,0,0,0,0,0,0,0,0,0,0,0,0,0,0,0,0,0,0,0,0,0,0,0,0,0,0,0,0,0,0,0,0,0,0,0,0,0,0,0,0,0,0,0,0,0,0,0,0,0,0.2669,0.2669,0,0.2743,0.2744,0.2744,0.2743,0.2742,0.2741,0.2741,0.2816,0.2819,0.2822,0,0,0,0,0,0,0,0,0,0,0,0,0,0.2523,0.2525,0.2668,0.2669,0.267,0.2743,0.2744,0.2745,0.2744,0.2742,0.2741,0.274,0.2815,0.2818,0.2822,0,0,0,0,0,0,0,0,0,0,0,0,0,0.259,0.2526,0.2668,0.2679,0.268,0.2742,0.2744,0.2745,0.2744,0.2742,0.2741,0.274,0.2814,0.2818,0.2822,0.2879,0,0,0.2836,0.2838,0,0,0,0,0,0,0,0,0.2587,0.2596,0.2676,0.2678,0.268,0.2732,0.272,0.279,0.2744,0.272,0.2741,0.2739,0.2789,0.2795,0.2813,0.2882,0.2886,0.2836,0.2839,0.2841,0.2842,0,0,0,0,0,0,0,0.2582,0.2592,0.2698,0.2677,0.268,0.2678,0.2686,0.2733,0.2762,0.2722,0.2722,0.2731,0.279,0.2808,0.2814,0.2887,0.2836,0.284,0.2843,0.2844,0.3003,0.3004,0,0,0,0,0,0,0.2575,0.2589,0.2695,0.27,0.2629,0.2682,0.2691,0.2717,0.2761,0.2767,0.2732,0.273,0.2802,0.2809,0.2817,0.2884,0.2841,0.2845,0.2847,0.3001,0.3003,0.3005,0,0,0,0,0,0,0.2572,0.2585,0.2692,0.2644,0.2658,0.2686,0.2715,0.2719,0.2738,0.2769,0.2774,0.2746,0.2801,0.2811,0.2863,0.2887,0.2847,0.2851,0.2999,0.3002,0.3004,0.302,0,0,0,0,0,0,0.2568,0.2584,0.2607,0.2645,0.2661,0.2738,0.2717,0.2722,0.2745,0.2744,0.2783,0.2788,0.28,0.2856,0.2867,0.2892,0.2854,0.2997,0.3,0.3003,0.3017,0.3022,0.3027,0,0,0,0,0,0.2563,0.2609,0.2608,0.2621,0.269,0.274,0.2748,0.2762,0.2747,0.277,0.2789,0.2787,0.2882,0.2861,0.2874,0.29,0.2996,0.2999,0.3003,0.3015,0.3021,0.3026,0,0,0,0,0,0,0.2574,0.2614,0.2614,0.2674,0.2703,0.2739,0.2768,0.2768,0.2803,0.28,0.2814,0.2823,0.2874,0.2893,0.2869,0.2955,0.2937,0.2943,0.2942,0.2948,0.2953,0.2947,0.2858,0,0,0,0,0,0.2583,0.262,0.2654,0.2703,0.2718,0.274,0.2763,0.277,0.2801,0.2813,0.2837,0.2866,0.2902,0.2926,0.2962,0.3019,0.3026,0.3043,0.3048,0.3052,0.3057,0.3085,0.3093,0.3016,0.3016,0.3016,0,0,0.2602,0.2629,0.2652,0.2706,0.273,0.2767,0.2751,0.2792,0.2819,0.282,0.287,0.2887,0.2921,0.2975,0.3,0.2992,0.3079,0.3056,0.3059,0.3062,0.309,0.3097,0.3103,0.3019,0.3018,0.3018,0,0,0.2657,0.2682,0.2725,0.2748,0.2783,0.2798,0.2807,0.2843,0.2855,0.2905,0.2905,0.2937,0.3,0.3023,0.3043,0.3102,0.3101,0.3113,0.3138,0.3166,0.3172,0.3177,0.3196,0.3203,0.3118,0.3118,0.3118,0,0.2677,0.2734,0.2746,0.2787,0.2809,0.281,0.2852,0.2874,0.2919,0.2934,0.2924,0.3,0.3023,0.3081,0.3095,0.3112,0.3122,0.3109,0.317,0.3176,0.3181,0.3199,0.3206,0.3119,0.3119,0.3119,0.3119,0,0.2755,0.2794,0.2824,0.2867,0.2893,0.2934,0.2951,0.2975,0.2979,0.2993,0.3043,0.307,0.3109,0.3123,0.3129,0.3181,0.3175,0.3167,0.3149,0.3189,0.3206,0.3214,0.3121,0.3121,0.312,0.312,0,0,0.2821,0.2868,0.2878,0.2896,0.2934,0.2964,0.3003,0.3041,0.3061,0.3091,0.3123,0.3174,0.3167,0.3189,0.3196,0.3221,0.3263,0.321,0.3211,0.3217,0.3319,0.3324,0.3332,0.3261,0.3263,0.3264,0.3316,0,0.2878,0.2949,0.296,0.3022,0.3057,0.3056,0.309,0.3116,0.313,0.316,0.3175,0.321,0.3198,0.3211,0.3236,0.3252,0.3283,0.3249,0.329,0.3291,0.3281,0.3342,0.3348,0.3396,0.3323,0.3324,0.3325,0,0.2956,0.2987,0.3052,0.3081,0.3096,0.3127,0.3161,0.319,0.3218,0.3226,0.325,0.3253,0.3292,0.3271,0.3324,0.33,0.3317,0.3327,0.3329,0.3334,0.3311,0.3346,0.3412,0.3418,0.3336,0.3335,0.3335,0,0.2995,0.3053,0.3098,0.3114,0.315,0.3171,0.3187,0.3214,0.3235,0.3264,0.3277,0.331,0.3329,0.3353,0.3365,0.3349,0.3415,0.3397,0.3422,0.3421,0.3436,0.3435,0.3504,0.3448,0.3448,0.3448,0.3448,0,0.3057,0.3097,0.3116,0.3144,0.3187,0.3197,0.3239,0.3255,0.3277,0.3307,0.3309,0.3336,0.335,0.3379,0.3388,0.3428,0.3437,0.3443,0.3445,0.3443,0.3441,0.3454,0.345,0.345,0.345,0.3449,0.3449,0,0.3109,0.3123,0.3172,0.3202,0.321,0.324,0.3265,0.3291,0.3303,0.334,0.3349,0.3369,0.3402,0.3416,0.3458,0.3463,0.3509,0.3509,0.35,0.35,0.3524,0.3521,0.3603,0.3613,0.3552,0.3552,0.3553,0,0.3147,0.3177,0.3209,0.3229,0.3245,0.3277,0.3298,0.3309,0.333,0.3362,0.3384,0.3417,0.3445,0.3498,0.3515,0.3546,0.3546,0.3572,0.3551,0.3546,0.3544,0.3542,0.3544,0.3576,0.3577,0.3577,0.3578,0,0.3214,0.3218,0.3249,0.328,0.3305,0.3331,0.3356,0.3371,0.3385,0.3409,0.3443,0.3464,0.3505,0.3538,0.3569,0.3584,0.3583,0.3584,0.3591,0.3589,0.3582,0.3584,0.351,0.3582,0.3582,0.3582,0.3581,0.3581,0.3259,0.3284,0.331,0.3342,0.3362,0.3384,0.3409,0.3423,0.3452,0.3487,0.3491,0.3527,0.3551,0.3592,0.3608,0.3635,0.3628,0.3639,0.3642,0.3644,0.3645,0.3578,0.3641,0.3641,0.3641,0.3641,0.3641,0,0.3324,0.3339,0.3369,0.3403,0.3428,0.3424,0.345,0.3471,0.3503,0.3525,0.3551,0.3589,0.362,0.3638,0.3668,0.3686,0.3686,0.3694,0.3692,0.3695,0.365,0.364,0.3693,0.3693,0.3693,0.3693,0.3693,0.3693,0.3361,0.3402,0.341,0.346,0.3475,0.351,0.3525,0.3545,0.3563,0.3605,0.363,0.3641,0.3661,0.3692,0.3719,0.3724,0.3734,0.3742,0.3746,0.3704,0.3698,0.3693,0.3684,0.3745,0.3745,0.3788,0.3788,0.3788]}]]